Retour au catalogue

STARLINK-3623

ActifCommunicationsVLEO
NORAD 51772·PAYLOAD·🇺🇸 United States

Lancé Feb 25, 2022 depuis Vandenberg Space Force Base

Loading…

Prochains Passages (prochaines 24 heures)

TLE

FraisSource: CelesTrak SupGP

Époque: Sep 14, 2026, 21:51 UTC

1 51772C 22017E   26257.91090278 -.00010379  00000+0 -30661-3 0  2579
2 51772  53.1582 197.8177 0001233  93.8794 236.8732 15.34399988    18

Suivez STARLINK-3623 en temps réel avec AllMySat

Download on the App Store